CAPE
4 3 3 3 4 3 6 3 0 0 0 0 0 0 0 0 7 26 62 76 54 0 0 0 0 0 0 0 0 0 0 0
2 5 3 2 1 1 2 2 0 0 0 0 0 0 0 0 0 20 14 35 75 18 1 0 0 0 0 0 0 0 0 0
4 9 4 2 1 1 1 0 0 0 0 0 0 0 0 0 11 0 13 8 42 25 0 0 0 0 0 0 0 0 0 0
3 5 7 3 1 1 0 0 0 0 0 0 0 0 0 0 3 6 6 20 2 18 4 0 0 0 0 0 0 0 0 0
1 0 0 1 1 0 0 0 0 0 0 0 0 0 0 0 0 2 1 0 0 2 1 0 0 0 0 0 0 0 0 0
0 0 0 0 0 0 0 0 0 0 0 0 0 0 0 0 0 0 0 0 0 0 0 0 0 0 0 0 0 0 0 0
0 0 0 0 0 0 0 0 0 0 0 0 0 0 0 0 0 0 0 0 0 0 0 0 0 0 0 0 0 0 0 0
0 0 0 0 0 0 0 0 0 0 0 0 0 0 0 0 0 0 0 0 0 0 0 0 0 0 0 0 0 0 0 0
0 0 0 0 0 0 0 0 0 0 0 0 0 0 0 0 0 0 0 0 0 0 0 0 0 0 0 0 0 0 0 0
0 0 0 0 0 0 0 0 0 0 0 0 0 0 0 0 0 0 0 0 0 0 0 0 0 0 0 0 0 0 0 0
0 0 0 0 0 0 0 0 0 0 0 0 0 0 0 0 0 0 0 0 0 0 0 0 0 0 0 0 0 0 0 0
0 0 0 0 0 0 0 0 0 0 0 0 0 0 0 0 0 0 0 0 0 0 0 0 0 0 0 0 0 0 0 0
0 0 0 0 0 0 0 0 0 0 0 0 0 0 0 0 0 0 0 0 0 0 0 0 0 0 0 0 0 0 0 0
0 0 0 0 0 0 0 0 0 0 0 0 0 0 0 0 1 0 0 0 0 0 0 0 0 0 0 0 0 0 0 0
0 0 0 0 0 1 0 0 0 0 0 0 0 0 0 0 2 0 0 0 0 0 0 0 0 0 0 0 0 0 0 0
0 0 0 0 0 0 2 6 0 0 0 0 0 0 0 0 0 0 0 0 0 0 0 0 0 0 0 0 0 0 0 0
0 0 0 0 0 0 0 0 0 0 0 0 0 0 0 0 0 1 1 0 0 2 0 0 0 0 0 0 0 0 0 0
0 0 0 0 0 0 0 0 0 0 0 0 0 0 0 0 0 0 0 0 0 0 1 0 0 0 3 1 0 0 0 0
0 8 0 0 0 0 0 0 0 0 0 1 0 0 0 0 0 0 0 0 0 0 0 2 2 3 1 0 0 0 0 0
CIN
-0 -0 -0 -0 -0 -0 -0 -0 -0 -0 -0 -0 -0 -0 -0 -0 -140 -128 -145 -143 -180 -0 -0 -0 -0 -0 -0 -0 -0 -0 -0 -0
-0 -0 -0 -0 -0 -0 -0 -0 -0 -0 -0 -0 -0 -0 -0 -0 -0 -115 -181 -147 -168 -210 -183 -0 -0 -0 -0 -0 -0 -0 -0 -0
-0 -0 -0 -0 -0 -0 -0 -0 -0 -0 -0 -0 -0 -0 -0 -0 -132 -9 -151 -187 -194 -186 -0 -0 -0 -0 -0 -0 -0 -0 -0 -0
-0 -0 -0 -0 -0 -0 -0 -0 -0 -0 -0 -0 -0 -0 -0 -0 -107 -126 -158 -169 -169 -152 -128 -0 -0 -0 -0 -0 -0 -0 -0 -0
-0 -0 -0 -0 -0 -0 -0 -0 -0 -0 -0 -0 -0 -0 -0 -0 -0 -134 -128 -0 -9 -170 -38 -0 -0 -0 -0 -0 -0 -0 -0 -0
-0 -0 -0 -0 -0 -0 -0 -0 -0 -0 -0 -0 -0 -0 -0 -0 -0 -0 -0 -0 -0 -0 -0 -0 -0 -0 -0 -0 -0 -0 -0 -0
-0 -0 -0 -0 -0 -0 -0 -0 -0 -0 -0 -0 -0 -0 -0 -0 -0 -0 -0 -0 -0 -0 -0 -0 -0 -0 -0 -0 -0 -0 -0 -0
-0 -0 -0 -0 -0 -0 -0 -0 -0 -0 -0 -0 -0 -0 -0 -0 -0 -0 -0 -0 -0 -0 -0 -0 -0 -0 -0 -0 -0 -0 -0 -0
-0 -0 -0 -0 -0 -0 -0 -0 -0 -0 -0 -0 -0 -0 -0 -0 -0 -0 -0 -0 -0 -0 -0 -0 -0 -0 -0 -0 -0 -0 -0 -0
-0 -0 -0 -0 -0 -0 -0 -0 -0 -0 -0 -0 -0 -0 -0 -0 -0 -0 -0 -0 -0 -0 -0 -0 -0 -0 -0 -0 -0 -0 -0 -0
-0 -0 -0 -0 -0 -0 -0 -0 -0 -0 -0 -0 -0 -0 -0 -0 -0 -0 -0 -0 -0 -0 -0 -0 -0 -0 -0 -0 -0 -0 -0 -0
-0 -0 -0 -0 -0 -0 -0 -0 -0 -0 -0 -0 -0 -0 -0 -0 -0 -0 -0 -0 -0 -0 -0 -0 -0 -0 -0 -0 -0 -0 -0 -0
-0 -0 -0 -0 -0 -0 -0 -0 -0 -0 -0 -0 -0 -0 -0 -0 -0 -17 -0 -0 -0 -0 -0 -0 -0 -0 -0 -0 -0 -0 -0 -0
-0 -0 -0 -0 -0 -0 -0 -0 -0 -0 -0 -0 -0 -0 -0 -0 -33 -0 -0 -0 -0 -0 -0 -0 -0 -0 -0 -0 -0 -0 -0 -0
-0 -0 -0 -0 -144 -290 -0 -0 -0 -0 -0 -0 -0 -0 -0 -0 -80 -0 -0 -0 -0 -0 -0 -0 -0 -0 -0 -0 -0 -0 -0 -0
-0 -0 -0 -0 -0 -0 -143 -537 -0 -0 -0 -0 -0 -0 -0 -0 -0 -0 -0 -0 -0 -0 -0 -0 -0 -0 -0 -0 -0 -0 -0 -0
-0 -0 -0 -0 -0 -0 -0 -0 -0 -0 -0 -0 -0 -0 -0 -0 -0 -0 -0 -0 -0 -0 -0 -0 -0 -0 -0 -0 -0 -0 -0 -0
-0 -0 -0 -0 -0 -0 -0 -0 -0 -0 -0 -0 -0 -0 -0 -0 -0 -0 -0 -0 -0 -0 -0 -0 -0 -0 -0 -0 -0 -0 -0 -0
-0 -627 -0 -0 -0 -0 -0 -0 -0 -0 -0 -0 -0 -0 -0 -0 -0 -0 -0 -0 -0 -0 -0 -0 -0 -0 -0 -0 -0 -0 -0 -0
Wind_Speed
8 8 7 7 8 8 7 7 11 9 8 5 4 4 4 5 4 4 7 6 6 5 5 5 5 5 4 3 5 2 3 4
9 9 9 8 7 10 10 8 8 9 7 6 5 3 3 4 2 4 6 7 6 6 4 5 5 7 7 6 3 4 1 3
9 9 10 10 10 11 11 11 9 7 4 5 3 5 4 3 2 3 3 7 7 7 6 6 6 5 6 6 6 3 2 4
11 10 10 9 10 12 12 11 9 7 8 4 3 3 2 3 2 2 4 5 6 7 6 6 7 6 7 8 6 7 5 3
11 13 12 11 12 9 11 12 12 7 6 8 9 9 10 8 4 3 4 4 4 5 8 7 8 5 6 8 6 5 6 6
12 13 13 13 13 11 9 11 12 10 7 6 7 7 5 4 3 6 6 5 9 11 10 11 9 8 9 9 7 6 4 5
10 9 9 10 10 10 9 11 12 11 9 9 8 9 7 6 7 5 5 6 7 9 9 9 8 8 8 8 7 8 8 4
13 14 13 12 15 14 12 14 15 15 14 15 14 13 11 12 11 8 7 6 5 7 7 7 7 9 8 8 9 8 6 5
16 16 14 13 13 15 15 15 15 16 16 18 16 15 10 10 11 8 7 8 8 7 8 9 9 8 8 7 5 6 8 6
18 16 16 13 15 16 15 15 14 16 17 15 16 15 16 14 12 9 9 10 10 9 10 11 9 9 10 10 7 9 10 9
14 15 17 17 15 14 15 17 18 17 16 16 15 16 16 15 12 14 14 12 11 9 10 10 9 8 9 10 8 8 9 7
18 18 18 17 14 16 17 18 19 18 17 17 17 16 17 15 15 14 14 11 9 10 9 9 9 9 10 10 12 13 13 12
17 19 18 16 18 16 19 19 21 21 18 17 19 17 15 15 16 15 10 11 10 10 9 10 9 12 14 14 13 13 15 14
12 12 15 17 18 17 19 19 22 20 19 18 16 16 16 17 15 11 12 10 6 7 9 13 14 13 12 13 14 14 14 12
11 8 13 15 16 18 19 20 21 20 19 19 18 17 17 17 13 9 12 12 14 15 14 14 12 12 11 10 10 10 10 9
10 13 13 13 12 14 16 17 17 17 19 18 19 15 10 8 9 12 14 15 14 11 12 11 10 10 9 11 11 10 10 9
10 10 9 11 11 12 13 13 14 12 14 14 6 6 7 7 6 6 5 4 4 6 9 11 11 7 11 13 11 9 8 6
9 9 11 8 4 5 5 5 6 7 8 7 7 7 8 7 7 7 7 8 7 8 8 9 9 7 9 9 11 6 6 8
7 5 5 5 5 7 7 7 7 7 8 7 7 6 6 6 7 7 6 5 7 7 7 7 8 5 14 14 16 10 8 7
Wind_Direction
133 140 137 132 127 110 111 117 119 114 109 93 68 89 101 92 117 129 138 142 141 128 136 162 150 147 151 132 143 121 152 163
145 151 144 132 131 132 129 128 131 133 125 139 134 120 107 62 137 155 178 141 148 147 168 157 164 172 173 165 123 140 133 152
155 162 158 161 153 154 148 146 150 139 152 162 141 141 136 219 170 193 202 161 157 170 173 181 184 153 168 165 145 138 128 189
176 185 180 166 160 164 163 156 161 169 173 156 135 78 62 208 215 188 230 208 175 159 180 181 186 194 185 177 168 159 156 212
188 190 191 183 178 174 165 163 168 168 177 176 175 190 200 211 190 174 203 215 213 198 207 196 189 171 176 191 176 175 143 173
205 193 188 184 185 180 173 169 174 180 185 191 183 188 201 190 190 184 190 196 214 216 190 194 190 190 199 188 174 192 188 162
217 206 184 177 175 182 181 176 185 189 193 207 200 205 202 206 228 207 206 204 207 210 191 194 193 194 187 191 184 200 210 177
196 201 203 182 178 183 183 192 195 196 203 206 210 212 211 214 218 220 211 213 213 216 189 190 198 202 194 182 188 202 189 162
198 197 200 206 192 185 191 195 199 201 208 213 214 218 218 223 221 218 223 229 235 218 205 208 205 185 184 177 164 163 154 156
203 196 197 197 204 202 199 203 208 208 210 214 218 220 221 224 227 225 225 224 226 219 205 202 197 190 186 172 169 166 163 161
208 202 200 205 200 199 201 208 213 213 212 213 217 220 223 229 230 227 225 227 224 207 199 198 190 170 166 168 169 161 165 167
204 209 207 205 196 199 198 204 210 213 216 216 221 223 224 225 227 228 227 223 204 193 197 200 186 171 179 183 177 172 176 175
201 204 202 201 205 201 203 204 210 212 215 215 221 221 222 222 225 224 216 208 197 192 178 187 192 195 183 189 181 182 183 182
204 200 200 204 203 204 206 206 214 215 217 224 225 221 216 219 217 201 189 192 191 204 196 202 196 200 199 199 195 186 187 183
202 194 203 205 204 203 206 210 208 208 211 215 220 220 216 218 215 187 182 174 194 199 208 205 198 198 201 195 183 181 183 174
207 207 210 210 198 204 206 214 209 204 209 211 218 220 210 205 193 189 195 201 218 203 192 194 190 186 187 185 181 177 177 154
203 210 203 211 201 199 200 205 204 191 201 208 168 151 157 172 177 183 163 158 184 192 192 185 182 190 169 168 155 141 132 120
215 192 212 214 175 160 170 110 104 136 130 129 134 135 132 135 139 158 169 169 172 187 186 171 168 155 145 126 104 100 121 122
168 142 120 109 101 91 98 98 99 107 110 118 123 132 140 145 148 155 150 158 158 153 145 133 114 112 121 122 113 116 111 96